Location: Pedimozza
(42.0500°N, 9.3500°E)
Time: 22:03:25
(UTC+00:00)

Cosmos 1538 Rocket - Pass Details

Date: 19 August 2019
Orbit: 753 x 791 km, 74.0° (Epoch: 14 September)

Event Time Altitude Azimuth Distance (km) Brightness Sun altitude
Rises 19:47:29 0° 336° (NNW) 3,216 8.3 -15.8°
Reaches altitude 10° 19:49:52 10° 333° (NNW) 2,285 7.4 -16.1°
Maximum altitude 19:54:57 60° 255° (WSW) 862 4.4 -16.9°
Enters shadow 19:59:06 15° 178° (S) 1,931 5.7 -17.5°
